Time,TemperatureF,DewpointF,PressureIn,WindDirection,WindDirectionDegrees,WindSpeedMPH,WindSpeedGustMPH,Humidity,HourlyPrecipIn,Conditions,Clouds,dailyrainin,SoftwareType,DateUTC
2014-08-02 00:00:00,80.9,74.1,30.00,NNE,13,1.0,1.0,80,0.00,,,0.00,Wunderground v.1.15,2014-08-02 04:00:00,
2014-08-02 00:05:00,80.8,74.0,30.01,NNE,13,1.0,1.0,80,0.00,,,0.00,Wunderground v.1.15,2014-08-02 04:05:00,
2014-08-02 00:10:00,80.8,74.0,30.00,NNE,13,1.0,1.0,80,0.00,,,0.00,Wunderground v.1.15,2014-08-02 04:10:00,
2014-08-02 00:15:00,80.8,74.0,30.00,NNE,13,0.0,1.0,80,0.00,,,0.00,Wunderground v.1.15,2014-08-02 04:15:00,
2014-08-02 00:20:00,80.8,74.0,30.00,NNE,13,1.0,1.0,80,0.00,,,0.00,Wunderground v.1.15,2014-08-02 04:20:00,
2014-08-02 00:25:00,80.7,74.3,30.00,NNE,13,0.0,1.0,81,0.00,,,0.00,Wunderground v.1.15,2014-08-02 04:25:00,
2014-08-02 00:30:00,80.6,74.2,30.00,NNE,13,0.0,1.0,81,0.00,,,0.00,Wunderground v.1.15,2014-08-02 04:30:00,
2014-08-02 00:35:00,80.7,74.3,30.00,NNE,13,0.0,1.0,81,0.00,,,0.00,Wunderground v.1.15,2014-08-02 04:35:00,
2014-08-02 00:40:00,80.7,74.3,30.00,NNE,13,1.0,1.0,81,0.00,,,0.00,Wunderground v.1.15,2014-08-02 04:40:00,
2014-08-02 00:45:00,80.7,74.3,30.00,NNE,13,0.0,1.0,81,0.00,,,0.00,Wunderground v.1.15,2014-08-02 04:45:00,
2014-08-02 00:50:00,80.6,74.2,30.00,North,357,0.0,0.0,81,0.00,,,0.00,Wunderground v.1.15,2014-08-02 04:50:00,
2014-08-02 00:55:00,80.5,74.5,29.99,NW,324,0.0,1.0,82,0.00,,,0.00,Wunderground v.1.15,2014-08-02 04:55:00,
2014-08-02 01:00:00,80.5,74.9,29.99,North,349,1.0,2.0,83,0.00,,,0.00,Wunderground v.1.15,2014-08-02 05:00:00,
2014-08-02 01:05:00,80.3,75.0,29.99,NNE,13,2.0,3.0,84,0.00,,,0.00,Wunderground v.1.15,2014-08-02 05:05:00,
2014-08-02 01:15:00,80.2,74.9,29.98,North,8,2.0,2.0,84,0.00,,,0.00,Wunderground v.1.15,2014-08-02 05:15:00,
2014-08-02 01:20:00,80.1,74.8,29.98,North,8,2.0,2.0,84,0.00,,,0.00,Wunderground v.1.15,2014-08-02 05:20:00,
2014-08-02 01:25:00,80.1,75.2,29.98,North,359,2.0,2.0,85,0.00,,,0.00,Wunderground v.1.15,2014-08-02 05:25:00,
2014-08-02 01:30:00,80.0,75.1,29.98,NNE,28,2.0,2.0,85,0.00,,,0.00,Wunderground v.1.15,2014-08-02 05:30:00,
2014-08-02 01:35:00,80.0,75.4,29.98,NNE,33,1.0,2.0,86,0.00,,,0.00,Wunderground v.1.15,2014-08-02 05:35:00,
2014-08-02 01:45:00,79.8,75.2,29.98,NNE,19,1.0,1.0,86,0.00,,,0.00,Wunderground v.1.15,2014-08-02 05:45:00,
2014-08-02 01:50:00,79.8,75.2,29.97,NNE,14,1.0,1.0,86,0.00,,,0.00,Wunderground v.1.15,2014-08-02 05:50:00,
2014-08-02 02:00:00,79.7,75.1,29.97,ENE,58,1.0,1.0,86,0.00,,,0.00,Wunderground v.1.15,2014-08-02 06:00:00,
2014-08-02 02:06:00,79.6,75.0,29.97,ENE,58,1.0,1.0,86,0.00,,,0.00,Wunderground v.1.15,2014-08-02 06:06:00,
2014-08-02 02:15:00,79.6,75.0,29.97,NE,34,1.0,1.0,86,0.00,,,0.00,Wunderground v.1.15,2014-08-02 06:15:00,
2014-08-02 02:25:00,79.6,75.0,29.96,North,11,0.0,0.0,86,0.00,,,0.00,Wunderground v.1.15,2014-08-02 06:25:00,
2014-08-02 02:30:00,79.5,74.9,29.96,NNE,12,0.0,0.0,86,0.00,,,0.00,Wunderground v.1.15,2014-08-02 06:30:00,
2014-08-02 02:35:00,79.5,74.9,29.95,NNE,12,0.0,0.0,86,0.00,,,0.00,Wunderground v.1.15,2014-08-02 06:35:00,